timestamp,surface_pressure_avg,surface_temp_avg,battery_voltage,lat,long
2021-09-16 00:09:01+00:00,229.7214,16.18,12.73,47.84626,-54.09684
2021-09-16 00:19:01+00:00,226.9148,16.1,12.73,47.84626,-54.09684
2021-09-16 00:29:01+00:00,224.5681,16.1,12.73,47.84626,-54.09684
2021-09-16 00:39:01+00:00,224.4581,16.1,12.73,47.84626,-54.09684
2021-09-16 00:49:01+00:00,222.4864,16.1,12.73,47.84626,-54.09684
2021-09-16 00:59:01+00:00,217.3047,16.1,12.73,47.84626,-54.09684
2021-09-16 01:09:01+00:00,214.1514,16.1,12.73,47.84626,-54.09684
2021-09-16 01:19:01+00:00,212.4915,16.1,12.73,47.84626,-54.09684
2021-09-16 01:29:01+00:00,208.4847,16.1,12.73,47.84626,-54.09684
2021-09-16 01:39:01+00:00,208.4265,16.09,12.73,47.84626,-54.09684
2021-09-16 01:49:01+00:00,210.1614,16.09,12.73,47.84626,-54.09684
2021-09-16 01:59:01+00:00,207.9798,16.09,12.73,47.84626,-54.09684
2021-09-16 02:09:01+00:00,205.5348,16.09,12.73,47.84626,-54.09684
2021-09-16 02:19:01+00:00,206.9781,16.07,12.73,47.84626,-54.09684
2021-09-16 02:29:01+00:00,205.4914,16.09,12.73,47.84626,-54.09684
2021-09-16 02:39:01+00:00,201.5531,16.1,12.73,47.84626,-54.09684
2021-09-16 02:49:01+00:00,205.5698,16.1,12.73,47.84626,-54.09684
2021-09-16 02:59:01+00:00,211.3048,16.1,12.73,47.84626,-54.09684
2021-09-16 03:09:01+00:00,207.8014,16.1,12.73,47.84626,-54.09684
2021-09-16 03:19:01+00:00,206.1131,16.08,12.73,47.84626,-54.09684
2021-09-16 03:29:01+00:00,209.7881,16.06,12.73,47.84626,-54.09684
2021-09-16 03:39:01+00:00,213.4898,16.06,12.73,47.84626,-54.09684
2021-09-16 03:49:01+00:00,215.3148,16.06,12.73,47.84626,-54.09684
2021-09-16 03:59:01+00:00,220.5714,16.05,12.73,47.84626,-54.09684
2021-09-16 04:09:01+00:00,229.9048,16.03,12.73,47.84626,-54.09684
2021-09-16 04:19:00+00:00,233.5132,16.0,12.65,47.84626,-54.09684
2021-09-16 04:29:00+00:00,233.9898,16.02,12.65,47.84626,-54.09684
2021-09-16 04:39:00+00:00,238.4114,16.0,12.65,47.84626,-54.09684
2021-09-16 04:49:00+00:00,245.7481,16.0,12.65,47.84626,-54.09684
2021-09-16 04:59:00+00:00,250.9014,16.0,12.65,47.84626,-54.09684
2021-09-16 05:09:00+00:00,255.0981,16.0,12.65,47.84626,-54.09684
2021-09-16 05:19:01+00:00,260.6481,16.0,12.65,47.84626,-54.09684
2021-09-16 05:29:01+00:00,267.1964,16.0,12.65,47.84626,-54.09684
2021-09-16 05:39:01+00:00,271.8597,16.01,12.65,47.84626,-54.09684
2021-09-16 05:49:01+00:00,275.0197,16.04,12.65,47.84626,-54.09684
2021-09-16 05:59:01+00:00,276.9181,16.06,12.65,47.84626,-54.09684
2021-09-16 06:09:01+00:00,283.0314,16.07,12.65,47.84626,-54.09684
2021-09-16 06:19:01+00:00,288.723,16.07,12.65,47.84626,-54.09684
2021-09-16 06:29:01+00:00,288.4647,16.06,12.65,47.84626,-54.09684
2021-09-16 06:39:01+00:00,287.9598,16.08,12.65,47.84626,-54.09684
2021-09-16 06:49:01+00:00,293.6613,16.08,12.65,47.84626,-54.09684
2021-09-16 06:59:01+00:00,302.0596,16.07,12.65,47.84626,-54.09684
2021-09-16 07:09:01+00:00,303.143,16.03,12.65,47.84626,-54.09684
2021-09-16 07:19:01+00:00,302.208,16.0,12.65,47.84626,-54.09684
2021-09-16 07:29:01+00:00,306.888,16.0,12.65,47.84626,-54.09684
2021-09-16 07:39:01+00:00,309.1497,16.03,12.65,47.84626,-54.09684
2021-09-16 07:49:01+00:00,304.7463,16.03,12.65,47.84626,-54.09684
2021-09-16 07:59:01+00:00,303.7197,16.04,12.65,47.84626,-54.09684
2021-09-16 08:09:01+00:00,305.383,16.04,12.65,47.84626,-54.09684
2021-09-16 08:19:01+00:00,303.508,16.05,12.65,47.84626,-54.09684
2021-09-16 08:29:01+00:00,298.9064,16.03,12.65,47.84626,-54.09684
2021-09-16 08:39:01+00:00,296.2147,16.0,12.65,47.84626,-54.09684
2021-09-16 08:49:01+00:00,294.9247,16.0,12.65,47.84626,-54.09684
2021-09-16 08:59:01+00:00,293.4697,16.0,12.65,47.84626,-54.09684
2021-09-16 09:09:01+00:00,285.8547,16.0,12.65,47.84626,-54.09684
2021-09-16 09:19:01+00:00,279.2464,16.0,12.65,47.84626,-54.09684
2021-09-16 09:29:01+00:00,274.118,15.98,12.65,47.84626,-54.09684
2021-09-16 09:39:01+00:00,268.7881,15.97,12.65,47.84626,-54.09684
2021-09-16 09:49:01+00:00,264.8347,15.93,12.65,47.84626,-54.09684
2021-09-16 09:59:01+00:00,262.8198,15.9,12.65,47.84626,-54.09684
2021-09-16 10:09:01+00:00,260.2198,15.9,12.65,47.84626,-54.09684
2021-09-16 10:19:01+00:00,256.3648,15.9,12.65,47.84626,-54.09684
2021-09-16 10:29:01+00:00,251.3531,15.9,12.65,47.84626,-54.09684
2021-09-16 10:39:01+00:00,249.6098,15.9,12.65,47.84626,-54.09684
2021-09-16 10:49:01+00:00,244.8881,15.9,12.65,47.84626,-54.09684
2021-09-16 10:59:01+00:00,238.6715,15.9,12.65,47.84626,-54.09684
2021-09-16 11:09:01+00:00,236.2914,15.9,12.65,47.84626,-54.09684
2021-09-16 11:19:01+00:00,234.2814,15.9,12.73,47.84626,-54.09684
2021-09-16 11:29:01+00:00,223.1481,15.9,12.73,47.84626,-54.09684
2021-09-16 11:39:01+00:00,215.7714,15.9,12.73,47.84626,-54.09684
2021-09-16 11:49:01+00:00,217.2798,15.89,12.73,47.84626,-54.09684
2021-09-16 11:59:01+00:00,216.2897,15.84,12.73,47.84626,-54.09684
2021-09-16 12:09:01+00:00,213.5914,15.8,12.73,47.84626,-54.09684
2021-09-16 12:19:01+00:00,211.0964,15.8,12.89,47.84626,-54.09684
2021-09-16 12:29:01+00:00,213.2581,15.78,12.89,47.84626,-54.09684
2021-09-16 12:39:01+00:00,218.4247,15.7,12.89,47.84626,-54.09684
2021-09-16 12:49:01+00:00,216.9998,15.7,12.89,47.84626,-54.09684
2021-09-16 12:59:01+00:00,214.2048,15.73,12.89,47.84626,-54.09684
2021-09-16 13:09:01+00:00,219.8165,15.7,12.89,47.84626,-54.09684
2021-09-16 13:19:01+00:00,222.1231,15.71,12.89,47.84626,-54.09684
2021-09-16 13:29:01+00:00,216.4098,15.7,12.89,47.84626,-54.09684
2021-09-16 13:39:01+00:00,217.5031,15.7,12.89,47.84626,-54.09684
2021-09-16 13:49:01+00:00,218.0247,15.7,12.89,47.84626,-54.09684
2021-09-16 13:59:01+00:00,211.6981,15.7,12.89,47.84626,-54.09684
2021-09-16 14:09:01+00:00,210.4448,15.7,12.89,47.84626,-54.09684
2021-09-16 14:19:01+00:00,211.7981,15.75,13.05,47.84626,-54.09684
2021-09-16 14:29:01+00:00,212.8015,15.77,13.05,47.84626,-54.09684
2021-09-16 14:39:01+00:00,212.8381,15.78,13.05,47.84626,-54.09684
2021-09-16 14:49:01+00:00,215.2431,15.79,13.05,47.84626,-54.09684
2021-09-16 14:59:01+00:00,220.9898,15.8,13.05,47.84626,-54.09684
2021-09-16 15:09:01+00:00,224.6681,15.8,13.05,47.84626,-54.09684
2021-09-16 15:19:01+00:00,223.2481,15.8,13.21,47.84626,-54.09684
2021-09-16 15:29:01+00:00,225.9881,15.8,13.21,47.84626,-54.09684
2021-09-16 15:39:01+00:00,230.0331,15.8,13.21,47.84626,-54.09684
2021-09-16 15:49:01+00:00,231.2465,15.8,13.21,47.84626,-54.09684
2021-09-16 15:59:01+00:00,231.6364,15.8,13.21,47.84626,-54.09684
2021-09-16 16:09:01+00:00,237.3248,15.8,13.21,47.84626,-54.09684
2021-09-16 16:19:01+00:00,242.2098,15.8,13.21,47.84626,-54.09684
2021-09-16 16:29:01+00:00,243.6548,15.8,13.21,47.84626,-54.09684
2021-09-16 16:39:01+00:00,246.1198,15.8,13.21,47.84626,-54.09684
2021-09-16 16:49:01+00:00,259.8564,15.8,13.21,47.84626,-54.09684
2021-09-16 16:59:01+00:00,271.0947,15.8,13.21,47.84626,-54.09684
2021-09-16 17:09:01+00:00,273.3714,15.8,13.21,47.84626,-54.09684
2021-09-16 17:19:01+00:00,277.9347,15.84,13.21,47.84626,-54.09684
2021-09-16 17:29:01+00:00,287.9313,15.82,13.21,47.84626,-54.09684
2021-09-16 17:39:01+00:00,287.6414,15.85,13.21,47.84626,-54.09684
2021-09-16 17:49:01+00:00,286.4314,15.88,13.21,47.84626,-54.09684
2021-09-16 17:59:01+00:00,293.358,15.9,13.21,47.84626,-54.09684
2021-09-16 18:09:01+00:00,297.5647,15.9,13.21,47.84626,-54.09684
2021-09-16 18:19:00+00:00,291.7197,15.9,13.05,47.84626,-54.09684
2021-09-16 18:29:00+00:00,297.6997,15.9,13.05,47.84626,-54.09684
2021-09-16 18:39:00+00:00,308.7297,15.9,13.05,47.84626,-54.09684
2021-09-16 18:49:00+00:00,310.9913,15.9,13.05,47.84626,-54.09684
2021-09-16 18:59:00+00:00,309.9846,15.9,13.05,47.84626,-54.09684
2021-09-16 19:09:00+00:00,323.5513,15.9,13.05,47.84626,-54.09684
2021-09-16 19:19:01+00:00,328.0630000000001,15.9,13.05,47.84626,-54.09684
2021-09-16 19:29:01+00:00,325.9479,15.9,13.05,47.84626,-54.09684
2021-09-16 19:39:01+00:00,325.168,15.9,13.05,47.84626,-54.09684
2021-09-16 19:49:01+00:00,329.7731,15.9,13.05,47.84626,-54.09684
2021-09-16 19:59:01+00:00,325.7297,15.9,13.05,47.84626,-54.09684
2021-09-16 20:09:01+00:00,324.5496,15.9,13.05,47.84626,-54.09684
2021-09-16 20:19:01+00:00,331.3429,15.9,12.97,47.84626,-54.09684
2021-09-16 20:29:01+00:00,335.3846,15.9,12.97,47.84626,-54.09684
2021-09-16 20:39:01+00:00,327.9713,15.9,12.97,47.84626,-54.09684
2021-09-16 20:49:01+00:00,323.1897,15.9,12.97,47.84626,-54.09684
2021-09-16 20:59:01+00:00,327.9513,15.9,12.97,47.84626,-54.09684
2021-09-16 21:09:01+00:00,328.5713,15.9,12.97,47.84626,-54.09684
2021-09-16 21:19:01+00:00,322.7047,15.9,12.89,47.84626,-54.09684
2021-09-16 21:29:01+00:00,323.0413,15.9,12.89,47.84626,-54.09684
2021-09-16 21:39:01+00:00,322.3179,15.9,12.89,47.84626,-54.09684
2021-09-16 21:49:01+00:00,319.9964,15.9,12.89,47.84626,-54.09684
2021-09-16 21:59:01+00:00,313.1414,15.9,12.89,47.84626,-54.09684
2021-09-16 22:09:01+00:00,304.418,15.9,12.89,47.84626,-54.09684
2021-09-16 22:19:01+00:00,299.2464,15.9,12.81,47.84626,-54.09684
2021-09-16 22:29:01+00:00,295.678,15.9,12.81,47.84626,-54.09684
2021-09-16 22:39:01+00:00,287.4947,15.9,12.81,47.84626,-54.09684
2021-09-16 22:49:01+00:00,278.6915,15.9,12.81,47.84626,-54.09684
2021-09-16 22:59:01+00:00,274.3331,15.9,12.81,47.84626,-54.09684
2021-09-16 23:09:01+00:00,269.6447,15.9,12.81,47.84626,-54.09684
2021-09-16 23:19:00+00:00,267.8148,15.9,12.73,47.84626,-54.09684
2021-09-16 23:29:00+00:00,268.9464,15.9,12.73,47.84626,-54.09684
2021-09-16 23:39:00+00:00,268.0398,15.9,12.73,47.84626,-54.09684
2021-09-16 23:49:00+00:00,257.2098,15.89,12.73,47.84626,-54.09684
2021-09-16 23:59:00+00:00,245.8714,15.89,12.73,47.84626,-54.09684
